Regional Weather Roundup
Issued by NWS Raleigh/Durham, NC

Home | Current Version | Previous Version | Text Only | Print | Product List | Glossary On
Versions: 1 2 3 4 5 6 7 8 9 10 11 12 13 14 15 16 17 18 19 20 21 22 23 24 25 26 27 28 29 30 31 32 33 34 35 36 37 38 39 40 41 42 43 44 45 46 47 48 49 50
000
ASUS42 KRAH 260110
RWRRAH
NORTH CAROLINA WEATHER ROUNDUP
NATIONAL WEATHER SERVICE RALEIGH NC
900 PM EDT FRI JUL 25 2014

NOTE: "FAIR" INDICATES FEW OR NO CLOUDS BELOW 12,000 FEET WITH NO
SIGNIFICANT WEATHER AND/OR OBSTRUCTIONS TO VISIBILITY.

NCZ001-053-055-056-065-067-260200-
WESTERN NORTH CAROLINA

CITY           SKY/WX    TMP DP  RH WIND       PRES   REMARKS
ASHEVILLE      MOCLDY    75  67  76 S3        30.08R
JEFFERSON      MOCLDY    69  61  76 CALM      30.13S
MORGANTON      CLOUDY    76  69  78 CALM      30.07S
HICKORY        CLEAR     78  67  68 CALM      30.02S
RUTHERFORDTON  MOCLDY    78  68  71 CALM      30.02S
MOUNT AIRY     CLEAR     77  68  72 E5        30.03F
BOONE          MOCLDY    69  62  77 SW3       30.14S
$$

NCZ021-022-025-041-071-084-088-260200-
CENTRAL NORTH CAROLINA

CITY           SKY/WX    TMP DP  RH WIND       PRES   REMARKS
CHARLOTTE      PTCLDY    79  68  69 S3        30.02S
GREENSBORO     PTCLDY    76  67  73 SE5       30.03R
WINSTON-SALEM  CLEAR     76  67  73 SE3       30.04S
RALEIGH-DURHAM PTCLDY    74  67  78 CALM      30.04R
FORT BRAGG     CLEAR     77  72  83 E3        30.02R
FAYETTEVILLE   CLEAR     77  72  84 NE3       30.01R
BURLINGTON     CLEAR     76  67  73 CALM      30.03R
LAURINBURG     CLEAR     77  73  87 E5        30.02R
$$

NCZ011-015-027-028-043-044-047-080-103-260200-
NORTHEASTERN NORTH CAROLINA

CITY           SKY/WX    TMP DP  RH WIND       PRES   REMARKS
ROCKY MT-WILSO MOCLDY    74  70  87 E3        30.03S
GREENVILLE     MOCLDY    77  72  83 CALM      30.05R
WASHINGTON     PTCLDY    76  71  86 E5        30.03S
ELIZABETH CITY CLEAR     72  60  66 E6        30.05R
MANTEO         NOT AVBL
CAPE HATTERAS  PTCLDY    75  69  81 NE5       30.05R
$$

NCZ078-087-090-091-093-098-101-260200-
SOUTHEASTERN NORTH CAROLINA

CITY           SKY/WX    TMP DP  RH WIND       PRES   REMARKS
LUMBERTON      CLOUDY    80  73  79 E3        30.01R
GOLDSBORO      CLOUDY    78  76  94 SE3       30.01R
KENANSVILLE    CLOUDY    75  72  90 CALM      30.04R
NEW BERN       CLOUDY    79  72  79 CALM      30.04R
CHERRY POINT   CLOUDY    77  69  76 E5        30.04R
BEAUFORT       CLOUDY    79  70  74 E3        30.03R
JACKSONVILLE   CLOUDY    78  71  79 E6        30.02R
WILMINGTON     CLOUDY    79  74  84 NE3       30.02R
$$



USA.gov is the U.S. government's official web portal to all federal, state and local government web resources and services.